Time,TemperatureF,DewpointF,PressureIn,WindDirection,WindDirectionDegrees,WindSpeedMPH,WindSpeedGustMPH,Humidity,HourlyPrecipIn,Conditions,Clouds,dailyrainin,SoftwareType,DateUTC
2013-02-21 00:03:00,19.8,12.8,30.42,NE,44,0.0,0.0,74,0.00,,,0.00,Wunderground v.1.15,2013-02-21 06:03:00,
2013-02-21 00:13:00,19.7,12.8,30.41,NE,44,0.0,0.0,74,0.00,,,0.00,Wunderground v.1.15,2013-02-21 06:13:00,
2013-02-21 00:23:00,19.5,12.9,30.41,NE,44,0.0,0.0,75,0.00,,,0.00,Wunderground v.1.15,2013-02-21 06:23:00,
2013-02-21 00:38:00,19.2,12.6,30.42,NE,44,0.0,0.0,75,0.00,,,0.00,Wunderground v.1.15,2013-02-21 06:38:00,
2013-02-21 00:43:00,19.2,12.6,30.42,NE,44,0.0,0.0,75,0.00,,,0.00,Wunderground v.1.15,2013-02-21 06:43:00,
2013-02-21 00:53:00,19.0,12.4,30.42,NE,44,0.0,0.0,75,0.00,,,0.00,Wunderground v.1.15,2013-02-21 06:53:00,
2013-02-21 01:08:00,18.5,11.9,30.42,NE,44,0.0,0.0,75,0.00,,,0.00,Wunderground v.1.15,2013-02-21 07:08:00,
2013-02-21 01:13:00,18.4,11.8,30.42,NE,44,0.0,0.0,75,0.00,,,0.00,Wunderground v.1.15,2013-02-21 07:13:00,
2013-02-21 01:28:00,17.9,11.6,30.42,NE,44,0.0,0.0,76,0.00,,,0.00,Wunderground v.1.15,2013-02-21 07:28:00,
2013-02-21 01:33:00,17.9,11.6,30.42,NE,44,0.0,0.0,76,0.00,,,0.00,Wunderground v.1.15,2013-02-21 07:33:00,
2013-02-21 01:43:00,17.7,11.4,30.41,NE,44,0.0,0.0,76,0.00,,,0.00,Wunderground v.1.15,2013-02-21 07:43:00,
2013-02-21 01:53:00,18.1,12.1,30.41,NE,44,0.0,0.0,77,0.00,,,0.00,Wunderground v.1.15,2013-02-21 07:53:00,
2013-02-21 02:03:00,18.2,12.2,30.41,NE,44,0.0,0.0,77,0.00,,,0.00,Wunderground v.1.15,2013-02-21 08:03:00,
2013-02-21 02:13:00,18.1,12.1,30.41,NE,44,0.0,0.0,77,0.00,,,0.00,Wunderground v.1.15,2013-02-21 08:13:00,
2013-02-21 02:23:00,17.9,11.9,30.41,NE,44,0.0,0.0,77,0.00,,,0.00,Wunderground v.1.15,2013-02-21 08:23:00,
2013-02-21 02:38:00,17.6,11.3,30.41,NE,44,0.0,0.0,76,0.00,,,0.00,Wunderground v.1.15,2013-02-21 08:38:00,
2013-02-21 02:43:00,17.4,11.1,30.41,NE,43,0.0,0.0,76,0.00,,,0.00,Wunderground v.1.15,2013-02-21 08:43:00,
2013-02-21 02:53:00,16.6,10.1,30.41,NE,44,0.0,0.0,75,0.00,,,0.00,Wunderground v.1.15,2013-02-21 08:53:00,
2013-02-21 03:03:00,16.1,9.9,30.40,NE,44,0.0,0.0,76,0.00,,,0.00,Wunderground v.1.15,2013-02-21 09:03:00,
2013-02-21 03:13:00,16.3,10.4,30.40,NE,44,0.0,0.0,77,0.00,,,0.00,Wunderground v.1.15,2013-02-21 09:13:00,
2013-02-21 03:23:00,16.9,11.2,30.40,NE,44,0.0,0.0,78,0.00,,,0.00,Wunderground v.1.15,2013-02-21 09:23:00,
2013-02-21 03:33:00,17.1,11.1,30.41,NE,44,0.0,0.0,77,0.00,,,0.00,Wunderground v.1.15,2013-02-21 09:33:00,
2013-02-21 03:43:00,17.1,11.1,30.41,NE,44,0.0,0.0,77,0.00,,,0.00,Wunderground v.1.15,2013-02-21 09:43:00,
2013-02-21 03:53:00,17.1,11.1,30.41,NE,44,0.0,0.0,77,0.00,,,0.00,Wunderground v.1.15,2013-02-21 09:53:00,
2013-02-21 04:03:00,17.1,11.1,30.41,NE,44,0.0,0.0,77,0.00,,,0.00,Wunderground v.1.15,2013-02-21 10:03:00,
2013-02-21 04:13:00,17.1,11.1,30.40,NE,52,0.0,0.0,77,0.00,,,0.00,Wunderground v.1.15,2013-02-21 10:13:00,
2013-02-21 04:23:00,17.2,11.2,30.40,ENE,59,0.0,0.0,77,0.00,,,0.00,Wunderground v.1.15,2013-02-21 10:23:00,
2013-02-21 04:33:00,17.2,11.2,30.39,ENE,57,0.0,0.0,77,0.00,,,0.00,Wunderground v.1.15,2013-02-21 10:33:00,
2013-02-21 04:43:00,17.2,11.2,30.38,ENE,63,0.0,0.0,77,0.00,,,0.00,Wunderground v.1.15,2013-02-21 10:43:00,
2013-02-21 04:53:00,17.4,11.4,30.37,ENE,61,0.0,0.0,77,0.00,,,0.00,Wunderground v.1.15,2013-02-21 10:53:00,
2013-02-21 05:03:00,17.4,11.4,30.35,ENE,63,0.0,0.0,77,0.00,,,0.00,Wunderground v.1.15,2013-02-21 11:03:00,
2013-02-21 05:13:00,17.4,11.4,30.35,ENE,76,0.0,0.0,77,0.00,,,0.00,Wunderground v.1.15,2013-02-21 11:13:00,
2013-02-21 05:23:00,17.7,11.7,30.37,ENE,69,0.0,0.0,77,0.00,,,0.00,Wunderground v.1.15,2013-02-21 11:23:00,
2013-02-21 05:33:00,17.7,11.4,30.39,ENE,76,0.0,0.0,76,0.00,,,0.00,Wunderground v.1.15,2013-02-21 11:33:00,
2013-02-21 05:43:00,18.2,11.9,30.41,ENE,78,0.0,0.0,76,0.00,,,0.00,Wunderground v.1.15,2013-02-21 11:43:00,
2013-02-21 05:53:00,18.1,11.5,30.41,East,92,0.0,0.0,75,0.00,,,0.00,Wunderground v.1.15,2013-02-21 11:53:00,
2013-02-21 06:08:00,17.6,11.0,30.41,East,87,0.0,0.0,75,0.00,,,0.00,Wunderground v.1.15,2013-02-21 12:08:00,
2013-02-21 06:13:00,17.6,11.0,30.41,ENE,70,0.0,0.0,75,0.00,,,0.00,Wunderground v.1.15,2013-02-21 12:13:00,
2013-02-21 06:23:00,17.2,10.6,30.40,ENE,70,0.0,0.0,75,0.00,,,0.00,Wunderground v.1.15,2013-02-21 12:23:00,
2013-02-21 06:33:00,17.4,11.1,30.37,NE,55,0.0,0.0,76,0.00,,,0.00,Wunderground v.1.15,2013-02-21 12:33:00,
2013-02-21 06:43:00,17.7,11.7,30.34,NE,54,0.0,0.0,77,0.00,,,0.00,Wunderground v.1.15,2013-02-21 12:43:00,
2013-02-21 06:53:00,18.4,12.4,30.35,ENE,69,0.0,0.0,77,0.00,,,0.00,Wunderground v.1.15,2013-02-21 12:53:00,
2013-02-21 07:03:00,18.7,12.7,30.37,East,79,0.0,0.0,77,0.00,,,0.00,Wunderground v.1.15,2013-02-21 13:03:00,
2013-02-21 07:13:00,19.5,13.5,30.38,ENE,74,0.0,0.0,77,0.00,,,0.00,Wunderground v.1.15,2013-02-21 13:13:00,
2013-02-21 07:23:00,20.4,14.3,30.39,East,91,0.0,0.0,77,0.00,,,0.00,Wunderground v.1.15,2013-02-21 13:23:00,
2013-02-21 07:33:00,21.1,14.7,30.39,East,83,0.0,0.0,76,0.00,,,0.00,Wunderground v.1.15,2013-02-21 13:33:00,
2013-02-21 07:43:00,22.3,15.9,30.39,ENE,76,0.0,0.0,76,0.00,,,0.00,Wunderground v.1.15,2013-02-21 13:43:00,
2013-02-21 07:58:00,22.8,16.1,30.39,ENE,58,0.0,0.0,75,0.00,,,0.00,Wunderground v.1.15,2013-02-21 13:58:00,
2013-02-21 08:03:00,23.0,16.3,30.38,East,84,0.0,0.0,75,0.00,,,0.00,Wunderground v.1.15,2013-02-21 14:03:00,
2013-02-21 08:13:00,23.1,16.0,30.38,ENE,62,0.0,0.0,74,0.00,,,0.00,Wunderground v.1.15,2013-02-21 14:13:00,
2013-02-21 08:23:00,23.6,16.8,30.39,East,79,0.0,0.0,75,0.00,,,0.00,Wunderground v.1.15,2013-02-21 14:23:00,
2013-02-21 08:38:00,24.2,17.4,30.38,East,92,0.0,0.0,75,0.00,,,0.00,Wunderground v.1.15,2013-02-21 14:38:00,
2013-02-21 08:43:00,24.7,17.6,30.38,East,87,0.0,0.0,74,0.00,,,0.00,Wunderground v.1.15,2013-02-21 14:43:00,
2013-02-21 08:53:00,25.3,17.9,30.37,East,101,0.0,0.0,73,0.00,,,0.00,Wunderground v.1.15,2013-02-21 14:53:00,
2013-02-21 09:03:00,25.8,18.3,30.38,ESE,105,0.0,0.0,73,0.00,,,0.00,Wunderground v.1.15,2013-02-21 15:03:00,
2013-02-21 09:13:00,26.1,18.6,30.38,ESE,105,0.0,0.0,73,0.00,,,0.00,Wunderground v.1.15,2013-02-21 15:13:00,
2013-02-21 09:23:00,26.2,18.4,30.36,East,98,0.0,0.0,72,0.00,,,0.00,Wunderground v.1.15,2013-02-21 15:23:00,
2013-02-21 09:33:00,26.5,18.7,30.36,ESE,105,0.0,0.0,72,0.00,,,0.00,Wunderground v.1.15,2013-02-21 15:33:00,
2013-02-21 09:43:00,26.8,19.0,30.35,East,87,0.0,0.0,72,0.00,,,0.00,Wunderground v.1.15,2013-02-21 15:43:00,
2013-02-21 09:53:00,27.1,18.9,30.36,East,88,0.0,0.0,71,0.00,,,0.00,Wunderground v.1.15,2013-02-21 15:53:00,
2013-02-21 10:03:00,27.4,18.9,30.35,East,92,0.0,0.0,70,0.00,,,0.00,Wunderground v.1.15,2013-02-21 16:03:00,
2013-02-21 10:13:00,27.8,18.9,30.33,East,83,0.0,0.0,69,0.00,,,0.00,Wunderground v.1.15,2013-02-21 16:13:00,
2013-02-21 10:23:00,28.1,18.5,30.32,ENE,71,0.0,0.0,67,0.00,,,0.00,Wunderground v.1.15,2013-02-21 16:23:00,
2013-02-21 10:33:00,28.6,19.4,30.32,East,89,0.0,0.0,68,0.00,,,0.00,Wunderground v.1.15,2013-02-21 16:33:00,
2013-02-21 10:43:00,28.6,18.7,30.29,East,86,0.0,0.0,66,0.00,,,0.00,Wunderground v.1.15,2013-02-21 16:43:00,
2013-02-21 10:53:00,28.9,19.0,30.29,East,88,0.0,0.0,66,0.00,,,0.00,Wunderground v.1.15,2013-02-21 16:53:00,
2013-02-21 11:08:00,29.5,19.2,30.30,East,94,0.0,0.0,65,0.00,,,0.00,Wunderground v.1.15,2013-02-21 17:08:00,
2013-02-21 11:13:00,29.5,19.2,30.29,ESE,114,0.0,0.0,65,0.00,,,0.00,Wunderground v.1.15,2013-02-21 17:13:00,
2013-02-21 11:23:00,29.6,19.3,30.28,ESE,107,0.0,0.0,65,0.00,,,0.00,Wunderground v.1.15,2013-02-21 17:23:00,
2013-02-21 11:33:00,29.6,19.3,30.27,East,80,0.0,0.0,65,0.00,,,0.00,Wunderground v.1.15,2013-02-21 17:33:00,
2013-02-21 11:43:00,29.5,19.2,30.25,East,87,0.0,0.0,65,0.00,,,0.00,Wunderground v.1.15,2013-02-21 17:43:00,
2013-02-21 11:53:00,29.5,19.2,30.24,East,80,0.0,0.0,65,0.00,,,0.00,Wunderground v.1.15,2013-02-21 17:53:00,
2013-02-21 12:03:00,29.6,19.6,30.24,ENE,78,0.0,0.0,66,0.00,,,0.00,Wunderground v.1.15,2013-02-21 18:03:00,
2013-02-21 12:13:00,29.9,19.9,30.23,East,85,0.0,0.0,66,0.00,,,0.00,Wunderground v.1.15,2013-02-21 18:13:00,
2013-02-21 12:23:00,29.9,19.9,30.23,East,80,0.0,0.0,66,0.00,,,0.00,Wunderground v.1.15,2013-02-21 18:23:00,
2013-02-21 12:33:00,30.1,20.1,30.22,East,83,0.0,0.0,66,0.00,,,0.00,Wunderground v.1.15,2013-02-21 18:33:00,
2013-02-21 12:43:00,30.1,20.1,30.22,ENE,73,0.0,0.0,66,0.00,,,0.00,Wunderground v.1.15,2013-02-21 18:43:00,
2013-02-21 12:53:00,30.2,20.2,30.23,East,83,0.0,0.0,66,0.00,,,0.00,Wunderground v.1.15,2013-02-21 18:53:00,
2013-02-21 13:03:00,30.2,19.8,30.25,East,88,0.0,0.0,65,0.00,,,0.00,Wunderground v.1.15,2013-02-21 19:03:00,
2013-02-21 13:13:00,30.5,20.5,30.26,East,98,0.0,0.0,66,0.00,,,0.00,Wunderground v.1.15,2013-02-21 19:13:00,
2013-02-21 13:23:00,30.7,20.7,30.27,ESE,118,0.0,0.0,66,0.00,,,0.00,Wunderground v.1.15,2013-02-21 19:23:00,
2013-02-21 13:33:00,30.7,20.7,30.26,East,95,0.0,0.0,66,0.00,,,0.00,Wunderground v.1.15,2013-02-21 19:33:00,
2013-02-21 13:43:00,30.7,20.7,30.25,East,90,0.0,0.0,66,0.00,,,0.00,Wunderground v.1.15,2013-02-21 19:43:00,
2013-02-21 13:58:00,30.7,20.7,30.24,East,90,0.0,0.0,66,0.00,,,0.00,Wunderground v.1.15,2013-02-21 19:58:00,
2013-02-21 14:03:00,30.7,20.7,30.23,East,86,0.0,0.0,66,0.00,,,0.00,Wunderground v.1.15,2013-02-21 20:03:00,
2013-02-21 14:13:00,30.7,20.7,30.23,East,100,0.0,0.0,66,0.00,,,0.00,Wunderground v.1.15,2013-02-21 20:13:00,
2013-02-21 14:23:00,30.7,21.0,30.23,East,95,0.0,0.0,67,0.00,,,0.00,Wunderground v.1.15,2013-02-21 20:23:00,
2013-02-21 14:33:00,30.5,20.8,30.21,East,84,0.0,0.0,67,0.00,,,0.00,Wunderground v.1.15,2013-02-21 20:33:00,
2013-02-21 14:43:00,30.7,21.0,30.21,ENE,77,0.0,0.0,67,0.00,,,0.00,Wunderground v.1.15,2013-02-21 20:43:00,
2013-02-21 14:53:00,31.0,21.7,30.19,East,98,0.0,0.0,68,0.00,,,0.00,Wunderground v.1.15,2013-02-21 20:53:00,
2013-02-21 15:03:00,31.0,21.3,30.18,East,88,0.0,0.0,67,0.00,,,0.00,Wunderground v.1.15,2013-02-21 21:03:00,
2013-02-21 15:18:00,31.0,21.3,30.18,East,88,0.0,0.0,67,0.00,,,0.00,Wunderground v.1.15,2013-02-21 21:18:00,
2013-02-21 15:23:00,31.0,21.3,30.18,East,93,0.0,0.0,67,0.00,,,0.00,Wunderground v.1.15,2013-02-21 21:23:00,
2013-02-21 15:33:00,30.5,22.5,30.19,East,101,0.0,0.0,72,0.00,,,0.00,Wunderground v.1.15,2013-02-21 21:33:00,
2013-02-21 15:43:00,30.1,23.1,30.18,East,96,0.0,0.0,75,0.00,,,0.00,Wunderground v.1.15,2013-02-21 21:43:00,
2013-02-21 15:53:00,29.8,23.5,30.18,ESE,108,0.0,0.0,77,0.00,,,0.00,Wunderground v.1.15,2013-02-21 21:53:00,
2013-02-21 16:03:00,29.5,24.1,30.17,East,94,0.0,0.0,80,0.00,,,0.00,Wunderground v.1.15,2013-02-21 22:03:00,
2013-02-21 16:13:00,29.3,24.2,30.17,East,96,0.0,0.0,81,0.00,,,0.00,Wunderground v.1.15,2013-02-21 22:13:00,
2013-02-21 16:23:00,29.2,24.7,30.15,East,84,0.0,0.0,83,0.00,,,0.00,Wunderground v.1.15,2013-02-21 22:23:00,
2013-02-21 16:33:00,29.0,24.8,30.13,East,79,0.0,0.0,84,0.00,,,0.00,Wunderground v.1.15,2013-02-21 22:33:00,
2013-02-21 16:43:00,29.0,25.1,30.11,ENE,66,0.0,0.0,85,0.00,,,0.00,Wunderground v.1.15,2013-02-21 22:43:00,
2013-02-21 16:53:00,28.9,25.0,30.10,East,85,0.0,0.0,85,0.00,,,0.00,Wunderground v.1.15,2013-02-21 22:53:00,
2013-02-21 17:03:00,28.7,24.8,30.09,East,86,0.0,0.0,85,0.00,,,0.00,Wunderground v.1.15,2013-02-21 23:03:00,
2013-02-21 17:13:00,28.7,24.8,30.08,ENE,75,0.0,0.0,85,0.00,,,0.00,Wunderground v.1.15,2013-02-21 23:13:00,
2013-02-21 17:23:00,28.6,24.7,30.07,East,86,0.0,0.0,85,0.00,,,0.00,Wunderground v.1.15,2013-02-21 23:23:00,
2013-02-21 17:33:00,28.4,24.7,30.07,ENE,78,0.0,0.0,86,0.00,,,0.00,Wunderground v.1.15,2013-02-21 23:33:00,
2013-02-21 17:43:00,28.4,24.7,30.06,ENE,78,0.0,0.0,86,0.00,,,0.00,Wunderground v.1.15,2013-02-21 23:43:00,
2013-02-21 17:58:00,28.3,24.6,30.04,East,85,0.0,0.0,86,0.00,,,0.00,Wunderground v.1.15,2013-02-21 23:58:00,
2013-02-21 18:03:00,28.3,24.6,30.03,East,80,0.0,0.0,86,0.00,,,0.00,Wunderground v.1.15,2013-02-22 00:03:00,
2013-02-21 18:13:00,28.1,24.7,30.02,East,80,0.0,0.0,87,0.00,,,0.00,Wunderground v.1.15,2013-02-22 00:13:00,
2013-02-21 18:23:00,28.1,24.7,30.01,ENE,73,0.0,0.0,87,0.00,,,0.00,Wunderground v.1.15,2013-02-22 00:23:00,
2013-02-21 18:33:00,28.1,24.7,30.01,East,87,0.0,0.0,87,0.00,,,0.00,Wunderground v.1.15,2013-02-22 00:33:00,
2013-02-21 18:43:00,28.1,24.7,29.99,East,92,0.0,0.0,87,0.00,,,0.00,Wunderground v.1.15,2013-02-22 00:43:00,
2013-02-21 18:53:00,28.1,24.5,29.97,East,92,0.0,0.0,86,0.00,,,0.00,Wunderground v.1.15,2013-02-22 00:53:00,
2013-02-21 19:03:00,28.1,24.5,29.98,East,79,0.0,0.0,86,0.00,,,0.00,Wunderground v.1.15,2013-02-22 01:03:00,
2013-02-21 19:13:00,28.3,24.6,29.96,East,90,0.0,0.0,86,0.00,,,0.00,Wunderground v.1.15,2013-02-22 01:13:00,
2013-02-21 19:23:00,28.3,24.6,29.98,East,85,0.0,0.0,86,0.00,,,0.00,Wunderground v.1.15,2013-02-22 01:23:00,
2013-02-21 19:33:00,28.4,24.5,29.99,East,92,0.0,0.0,85,0.00,,,0.00,Wunderground v.1.15,2013-02-22 01:33:00,
2013-02-21 19:43:00,28.4,24.5,29.99,East,86,0.0,0.0,85,0.00,,,0.00,Wunderground v.1.15,2013-02-22 01:43:00,
2013-02-21 19:53:00,28.4,24.5,29.99,ESE,103,0.0,0.0,85,0.00,,,0.00,Wunderground v.1.15,2013-02-22 01:53:00,
2013-02-21 20:03:00,28.7,25.0,29.98,East,92,0.0,0.0,86,0.00,,,0.00,Wunderground v.1.15,2013-02-22 02:03:00,
2013-02-21 20:13:00,28.9,25.2,29.98,ESE,105,0.0,0.0,86,0.00,,,0.00,Wunderground v.1.15,2013-02-22 02:13:00,
2013-02-21 20:23:00,28.9,25.5,29.96,East,100,0.0,0.0,87,0.00,,,0.00,Wunderground v.1.15,2013-02-22 02:23:00,
2013-02-21 20:33:00,29.0,25.6,29.98,ESE,109,0.0,0.0,87,0.00,,,0.00,Wunderground v.1.15,2013-02-22 02:33:00,
2013-02-21 20:43:00,29.0,25.6,29.98,ESE,106,0.0,0.0,87,0.00,,,0.00,Wunderground v.1.15,2013-02-22 02:43:00,
2013-02-21 20:53:00,29.2,25.8,29.98,ESE,105,0.0,0.0,87,0.00,,,0.00,Wunderground v.1.15,2013-02-22 02:53:00,
2013-02-21 21:03:00,29.3,25.9,29.97,ESE,108,0.0,0.0,87,0.00,,,0.00,Wunderground v.1.15,2013-02-22 03:03:00,
2013-02-21 21:13:00,29.3,25.9,29.96,East,98,0.0,0.0,87,0.00,,,0.00,Wunderground v.1.15,2013-02-22 03:13:00,
2013-02-21 21:23:00,29.3,25.9,29.96,East,97,0.0,0.0,87,0.00,,,0.00,Wunderground v.1.15,2013-02-22 03:23:00,
2013-02-21 21:38:00,29.3,25.9,29.95,ESE,103,0.0,0.0,87,0.00,,,0.00,Wunderground v.1.15,2013-02-22 03:38:00,
2013-02-21 21:43:00,29.6,26.2,29.96,ESE,102,0.0,0.0,87,0.00,,,0.00,Wunderground v.1.15,2013-02-22 03:43:00,
2013-02-21 21:53:00,29.8,26.4,29.96,East,101,0.0,0.0,87,0.00,,,0.00,Wunderground v.1.15,2013-02-22 03:53:00,
2013-02-21 22:03:00,29.9,26.5,29.96,ESE,108,0.0,0.0,87,0.00,,,0.00,Wunderground v.1.15,2013-02-22 04:03:00,
2013-02-21 22:13:00,30.5,27.4,29.95,East,99,0.0,0.0,88,0.00,,,0.00,Wunderground v.1.15,2013-02-22 04:13:00,
2013-02-21 22:28:00,31.0,27.9,29.95,ESE,109,0.0,0.0,88,0.00,,,0.00,Wunderground v.1.15,2013-02-22 04:28:00,
2013-02-21 22:33:00,31.1,28.2,29.95,SE,134,0.0,0.0,89,0.00,,,0.00,Wunderground v.1.15,2013-02-22 04:33:00,
2013-02-21 22:43:00,31.5,28.6,29.94,ESE,116,0.0,0.0,89,0.00,,,0.00,Wunderground v.1.15,2013-02-22 04:43:00,
2013-02-21 22:53:00,31.8,28.9,29.93,ESE,119,0.0,0.0,89,0.00,,,0.00,Wunderground v.1.15,2013-02-22 04:53:00,
2013-02-21 23:03:00,32.0,29.1,29.92,SE,128,0.0,0.0,89,0.00,,,0.00,Wunderground v.1.15,2013-02-22 05:03:00,
2013-02-21 23:08:00,32.0,29.1,29.92,ESE,109,0.0,0.0,89,0.00,,,0.00,Wunderground v.1.15,2013-02-22 05:08:00,
2013-02-21 23:13:00,31.8,28.9,29.92,ESE,119,0.0,0.0,89,0.00,,,0.00,Wunderground v.1.15,2013-02-22 05:13:00,
2013-02-21 23:23:00,31.8,28.9,29.91,ESE,115,0.0,0.0,89,0.00,,,0.00,Wunderground v.1.15,2013-02-22 05:23:00,
2013-02-21 23:28:00,32.0,29.1,29.91,ESE,117,0.0,0.0,89,0.00,,,0.00,Wunderground v.1.15,2013-02-22 05:28:00,
2013-02-21 23:33:00,32.1,29.2,29.91,ESE,105,0.0,0.0,89,0.00,,,0.00,Wunderground v.1.15,2013-02-22 05:33:00,
2013-02-21 23:43:00,32.0,29.1,29.91,ESE,117,0.0,0.0,89,0.00,,,0.00,Wunderground v.1.15,2013-02-22 05:43:00,
2013-02-21 23:58:00,32.0,29.4,29.91,ESE,115,0.0,0.0,90,0.00,,,0.00,Wunderground v.1.15,2013-02-22 05:58:00,